| Date | Temp | Humidity | Rainfall | Dew Point | Wind Direction | Wind Speed | Wind Pressure | Condition | Visibility |
|---|---|---|---|---|---|---|---|---|---|
| 2025-04-29 18:58:56 | 28 | 85 | 0.00 | 25 | 180 | 3.8 | 1009 | Partly Cloudy (Night) | 10KM |
| 2025-04-29 18:01:02 | 29 | 82 | 0.00 | 25 | 280 | 7.6 | 1008 | Distant showers | 15KM |
| 2025-04-29 16:59:45 | 29 | 78 | 25 | 290 | 13.3 | 1007 | Distant showers | 10 KM | |
| 2025-04-29 16:01:17 | 30 | 71 | 24 | 260 | 13.3 | 1007 | Distant showers | 10 KM | |
| 2025-04-29 15:02:54 | 30 | 75 | 25 | 290 | 19.0 | 1007 | Partly Cloudy (Day) | 15 KM | |
| 2025-04-29 13:59:34 | 28 | 87 | 25 | 270 | 7.6 | 1008 | Thundershowers | 10 KM | |
| 2025-04-29 13:05:43 | 26 | 93 | 0.00 | 25 | 200 | 7.6 | 1010 | Thundershowers | 09KM |
| 2025-04-29 12:08:40 | 26 | 96 | 0.00 | 25 | 230 | 11.4 | 1010 | Showers | 04KM |
| 2025-04-29 11:07:39 | 32 | 67 | 0.00 | 25 | 210 | 7.6 | 1009 | Partly Cloudy (Day) | 20KM |
| 2025-04-29 10:03:37 | 30 | 73 | 25 | 210 | 11.4 | 1010 | Partly Cloudy (Day) | 20 KM | |
| 2025-04-29 09:00:29 | 29 | 76 | 25 | 170 | 7.6 | 1010 | Partly Cloudy (Day) | 15 KM | |
| 2025-04-29 08:00:50 | 27 | 85 | 0 | 24 | 190 | 3.8 | 1009 | Fair | 20 km |
| 2025-04-29 06:59:34 | 25 | 93 | 0 | 23 | 220 | 7.6 | 1009 | Fair | 20 KM |
| 2025-04-29 06:01:29 | 24 | 94 | 0 | 23 | 220 | 5.7 | 1008 | Lightning | 10 KM |
| 2025-04-29 05:02:35 | 25 | 94 | 0 | 24 | 220 | 3.8 | 1007 | Fair | 10 KM |
| 2025-04-29 04:00:41 | 25 | 94 | 0 | 24 | 200 | 5.7 | 1008 | Fair | 10 KM |
| 2025-04-29 03:00:09 | 25 | 95 | 0 | 24 | 210 | 3.8 | 1008 | Fair | 10 KM |
| 2025-04-29 02:01:17 | 25 | 91 | 0.0 | 24 | 170 | 8 | 1008 | Partly Cloudy (Night) | 10 |
| 2025-04-29 00:58:48 | 26 | 92 | 0.0 | 24 | 200 | 6 | 1009 | Night Thunderstorm | 10 |
| 2025-04-29 00:00:12 | 26 | 89 | 0.0 | 24 | 180 | 4 | 1009 | Night Thunderstorm | 10 |
| 2025-04-28 23:03:58 | 26 | 89 | 0.0 | 24 | 150 | 4 | 1009 | Night Thunderstorm | 10 |
| 2025-04-28 22:02:08 | 26 | 88 | 0.0 | 24 | 200 | 10 | 1009 | Cloudy | 10 km |
| 2025-04-28 21:00:26 | 27 | 85 | 24 | 170 | 9.5 | 1009 | Lightning | 10 KM | |
| 2025-04-28 20:31:05 | 27 | 85 | 25 | 230 | 3.8 | 1008 | Lightning | 10 KM | |
| 2025-04-28 20:02:13 | 27 | 84 | 24 | 180 | 5.7 | 1008 | Lightning | 10 KM |